Location: Boston
(42.3580°N, 71.0600°W)
Time: 06:17:41
(UTC-05:00)

Vanguard 1 - Visible Passes

Search period start: 16 December 2017 00:00
Search period end: 26 December 2017 00:00
Orbit: 650 x 3834 km, 34.2° (Epoch: 15 December)

Date Brightness Start Highest point End Pass type
(mag) Time Alt. Az. Time Alt. Az. Time Alt. Az.
16 Dec 14.6 04:25:20 10° SSE 04:37:12 17° SE 04:48:32 10° E visible
16 Dec 14.1 06:40:06 10° SSW 07:00:46 41° SSE 07:16:53 10° E visible
17 Dec 14.4 04:42:28 10° S 04:57:55 23° SE 05:12:26 10° E visible
18 Dec 14.3 05:00:56 10° S 05:18:40 30° SE 05:35:07 10° E visible
19 Dec 14.5 03:11:59 10° SE 03:16:53 11° SE 03:21:52 10° ESE visible
19 Dec 14.1 05:20:11 10° SSW 05:39:32 36° SE 05:57:11 10° E visible
20 Dec 14.3 03:25:37 10° SSE 03:37:20 17° SE 03:49:27 10° E visible
20 Dec 13.9 05:39:57 10° SSW 06:00:29 43° SSE 06:18:53 10° E visible
21 Dec 14.2 03:42:58 10° S 03:57:50 24° SE 04:13:22 10° E visible
21 Dec 13.7 06:00:08 10° SW 06:21:33 50° SSE 06:40:24 10° E visible
22 Dec 14.1 04:01:33 10° S 04:18:25 30° SE 04:36:07 10° E visible
22 Dec 13.6 06:20:38 10° SW 06:42:43 56° SSE 07:01:44 10° E visible
23 Dec 14.3 02:13:48 10° SE 02:17:18 11° ESE 02:20:54 10° ESE visible
23 Dec 13.9 04:20:52 10° SSW 04:39:06 37° SE 04:58:16 10° E visible
24 Dec 14.1 02:26:58 10° SSE 02:37:32 17° SE 02:49:15 10° E visible
24 Dec 13.7 04:40:40 10° SSW 04:59:56 44° SE 05:20:04 10° E visible
25 Dec 13.9 02:44:24 10° S 02:57:50 23° SE 03:13:19 10° E visible
25 Dec 13.5 05:00:51 10° SW 05:20:54 51° SSE 05:41:40 10° E visible
